Location: Powder Track
(41.8531°N, 72.3584°W)
Time: 22:29:09
(UTC+00:00)

X-37B - Pass Details

Date: 27 June 2021
Orbit: 383 x 392 km, 45.0° (Epoch: 01 July)

Event Time Altitude Azimuth Distance (km) Brightness Sun altitude
Rises 01:21:49 0° 255° (WSW) 2,252 4.9 -8.7°
Reaches altitude 10° 01:23:53 10° 257° (WSW) 1,400 3.9 -8.9°
Maximum altitude 01:27:02 75° 343° (NNW) 399 0.8 -9.4°
Drops below altitude 10° 01:30:11 10° 69° (ENE) 1,402 3.2 -9.8°
Sets 01:32:16 0° 71° (ENE) 2,257 4.2 -10.1°
